Flag for Mexico Weather past 2 weeks in Mexico City, Federal District, Mexico

Now
59 °F

Mostly cloudy.


Feels Like: 59 °F
Forecast: 59 / 72 °F
Wind: No wind

Location: Mexico City / Licenci

Current Time: Sep 3, 2015 at 5:00:55 AM

Latest Report: Sep 3, 2015 at 3:51 AM


Visibility: 4 mi

Pressure: 29.79 "Hg (22.84 "Hg at 2241m altitude)

Humidity: 94%

Dew point: 57 °F

Location of Mexico CityLocation

Historic Weather in Mexico City — Graph

°F

Mexico City temperature yesterday

Maximum temperature yesterday: 73 °F (at 2:45 PM)
Minimum temperature yesterday: 57 °F (at 5:48 AM)
Average temperature yesterday: 63 °F

Past Weeks' High & Low Weather Summary

 TemperatureHumidityPressure
High77 °F (Aug 20, 2:43 PM)94% (Aug 21, 5:47 AM)30.43 "Hg (Aug 21, 5:47 AM)
Low55 °F (Aug 20, 4:46 AM)32% (Aug 23, 4:46 PM)29.58 "Hg (Aug 21, 3:49 PM)
Average64 °F66%30.22 "Hg
* Reported Aug 19 3:59 AM — Sep 3 3:51 AM, Mexico City, Weather by CustomWeather, © 2015

Note: Actual official high and low records may vary slightly from our data, if they occured in-between our weather recording intervals... More about our weather records

Advertising

Mexico City weather history for previous 24 hours

 ConditionsComfort  
Time TempWeatherWind HumidityBarometerVisibility
3:51 AM
Thu, Sep 3
59 °FMostly cloudy.No wind94%29.79 "Hg4 mi
2:52 AM59 °FMostly cloudy.8 mph94%30.30 "Hg4 mi
1:53 AM61 °FMostly cloudy.3 mph83%30.32 "Hg5 mi
12:48 AM61 °FLight rain. Mostly cloudy.3 mph83%29.85 "Hg5 mi
11:49 PM
Wed, Sep 2
61 °FMostly cloudy.6 mph83%30.37 "Hg5 mi
10:47 PM59 °FLight rain. Overcast.3 mph88%30.37 "Hg5 mi
9:47 PM61 °FThundershowers. Mostly cloudy.5 mph83%29.90 "Hg5 mi
9:43 PM61 °FThundershowers. Mostly cloudy.5 mph83%30.34 "Hg5 mi
8:46 PM59 °FThunderstorms. Mostly cloudy.9 mph82%30.32 "Hg5 mi
8:10 PM63 °FSleet. Cloudy.N/A83%30.28 "HgN/A
7:46 PM66 °FThunderstorms. Mostly cloudy.16 mph68%30.25 "Hg4 mi
7:01 PM68 °FSleet. Cloudy.N/A69%30.22 "HgN/A
4:43 PM73 °FPartly sunny.3 mph44%30.24 "Hg5 mi
3:45 PM73 °FScattered clouds.6 mph47%29.75 "Hg5 mi
2:45 PM73 °FScattered clouds.6 mph50%30.31 "Hg5 mi
1:47 PM70 °FScattered clouds.3 mph53%30.35 "Hg5 mi
12:50 PM68 °FBroken clouds.No wind60%29.88 "Hg5 mi
12:47 PM68 °FBroken clouds.No wind64%30.39 "Hg5 mi
10:20 AM61 °FMostly cloudy.5 mph77%30.41 "Hg5 mi
9:45 AM59 °FMostly cloudy.6 mph82%29.92 "Hg5 mi
9:25 AM59 °FMostly cloudy.7 mph82%30.41 "Hg5 mi
8:58 AM59 °FMostly cloudy.6 mph77%30.41 "Hg5 mi
8:23 AM59 °FMostly cloudy.7 mph82%30.39 "Hg5 mi
7:22 AM59 °FFog.6 mph88%30.38 "Hg3 mi
5:48 AM57 °FLight rain. Mostly cloudy.2 mph94%30.37 "Hg4 mi
Weather by CustomWeather, © 2015

See weather overviewHow to use our weather pages